Regional Weather Roundup
Issued by NWS New Orleans/Baton Rouge, LA

Home | Current Version | Previous Version | Text Only | Print | Product List | Glossary On
Versions: 1 2 3 4 5 6 7 8 9 10 11 12 13 14 15 16 17 18 19 20 21 22 23 24 25 26 27 28 29 30 31 32 33 34 35 36 37 38 39 40 41 42 43 44 45 46 47 48 49 50
000
ASUS44 KLIX 252010
RWRLIX
NEW ORLEANS REGIONAL WEATHER ROUNDUP
NATIONAL WEATHER SERVICE NEW ORLEANS LA
300 PM CDT FRI JUL 25 2014

NOTE: "FAIR" INDICATES FEW OR NO CLOUDS BELOW 12,000 FEET WITH NO
      SIGNIFICANT WEATHER AND/OR OBSTRUCTIONS TO VISIBILITY.
      SKY/WX - SKY CONDITION AND SIGNIFICANT WEATHER.
      TMP - AIR TEMPERATURE.     DP    - DEWPOINT TEMPERATURE.
      RH  - RELATIVE HUMIDITY.   PRES  - PRESSURE.
      HI  - HEAT INDEX.          WCI   - WIND CHILL INDEX.

*  THESE STATIONS ARE NOT NWS OR FAA STATIONS AND ARE NOT UNDER
   NWS QUALITY CONTROL.

LAZ038-040-048-061>063-065>067-069-252100-
SOUTHEAST LOUISIANA

CITY           SKY/WX    TMP DP  RH WIND       PRES   REMARKS
N.O. AUDUBON   NOT AVBL
N.O. INTL ARPT PTSUNNY   92  72  51 CALM      29.99F HX  99
N.O. LAKEFRONT SUNNY     87  75  67 W5        30.00F HX  96
N.O. DOWNTOWN* CLOUDY    86  72  62 S6        30.01S
SLIDELL        SUNNY     92  73  53 VRB6      29.98F HX 100
BATON ROUGE    MOSUNNY   92  73  53 W7        29.99F HX 100
BOOTHVILLE     SUNNY     86  75  69 SW12      30.02F HX  95
BELLE CHASSE   PTSUNNY   90  71  53 CALM      29.99F HX  96
BOGALUSA*      HVY RAIN  89  72  56 NW7       30.00F HX  97
GALLIANO*      NOT AVBL
NEW ROADS*       N/A     91  73  55 MISG      29.99F HX  98
GONZALES*        N/A     84  76  76 CALM      29.99F
HAMMOND*       MOSUNNY   93  70  46 W7        30.00F HX  99
HOUMA*         MOSUNNY   91  72  52 S7        30.00F HX  98
PORT FOURCHON* PTCLDY    88  75  66 SW12      30.04F HX  97

$$

MSZ070-080>082-252100-
SOUTHERN MISSISSIPPI

CITY           SKY/WX    TMP DP  RH WIND       PRES   REMARKS
MCCOMB         SUNNY     91  71  51 W5        30.00F HX  97
GULFPORT       CLOUDY    92  75  57 SW9       29.97F HX 103
BILOXI         MOSUNNY   87  77  72 SW14      29.98F HX  98
PASCAGOULA     LGT RAIN  75  73  93 SW7       29.98F FOG
STENNIS ARPT*  MOSUNNY  N/A N/A N/A S8        29.98F

$$

COASTAL OBSERVATIONS
LAKE AND NEARSHORE STATIONS

STATION/POSITION TIME  TEMP    WIND        PRES    WAVE
                       AIR SEA DIR/SP/G            HT/PER
                 (UTC) (F)     (DEG/KT/KT) (MB)    (FT/S)
PASCAGOULA       2000   83     330/ 11/ 17 1015.7
WAVELAND YACHT   2000   84     180/  4/  9 1014.7
GRAND ISLE       2000   86 85  220/  7/ 15 1017.1
SOUTHWEST PASS   2000   87 85  250/ 10/ 13 1017.3
NEW CANAL        2000   86 84   10/  4/  4 1016.3
SHELL BEACH      2000   87 82  220/  8/ 10 1015.7

OFFSHORE STATIONS

STATION/POSITION TIME  TEMP    WIND        PRES    WAVE
                       AIR SEA DIR/SP/G            HT/PER
                 (UTC) (F)     (DEG/KT/KT) (MB)    (FT/S)
64 S DAUPHIN ISL 1852   84 88  260/  8/ 10 1017.0

$$



USA.gov is the U.S. government's official web portal to all federal, state and local government web resources and services.